MAS148 YMML-WMKK

Flight info

Callsign MAS148
Flight time N/A
Altitude 40000
Route KEPPA H164 LEC A461 AS A587 ONOXA G326 BLI M635 JUNHA DCT IRTAD A464 SJ G579 VJB A457 GUPTA
Aircraft A359/H-SDE2E3GHIJ3J4J5LM1ORWXY/LB1D1

Departure

Time N/A
Airport Melbourne Airport (YMML)

Arrival

Time 2026-05-04 00:19
Airport Kuala Lumpur International Airport (WMKK)
Time Latitude Longitude Altitude Speed Heading
2026-05-03 20:15 -15.19529 124.15332 35937 ft 446 kts 309°
2026-05-03 20:15 -15.15165 124.10766 35937 ft 446 kts 309°
2026-05-03 20:16 -15.10822 124.06225 35936 ft 446 kts 309°
2026-05-03 20:16 -15.06452 124.01658 35935 ft 447 kts 309°
2026-05-03 20:17 -15.02082 123.97093 35937 ft 447 kts 309°
2026-05-03 20:17 -14.97704 123.92524 35935 ft 447 kts 309°
2026-05-03 20:18 -14.93326 123.87957 35934 ft 447 kts 309°
2026-05-03 20:18 -14.88974 123.83420 35938 ft 447 kts 309°
2026-05-03 20:19 -14.84586 123.78849 35935 ft 448 kts 309°
2026-05-03 20:19 -14.80202 123.74284 35934 ft 448 kts 309°
2026-05-03 20:20 -14.75813 123.69717 35937 ft 448 kts 309°
2026-05-03 20:20 -14.71418 123.65147 35937 ft 448 kts 309°
2026-05-03 20:21 -14.67054 123.60611 35938 ft 448 kts 309°
2026-05-03 20:21 -14.62661 123.56049 35938 ft 448 kts 309°
2026-05-03 20:22 -14.58263 123.51484 35938 ft 448 kts 309°
2026-05-03 20:22 -14.53865 123.46920 35938 ft 448 kts 309°
2026-05-03 20:23 -14.49468 123.42362 35940 ft 448 kts 309°
2026-05-03 20:23 -14.45093 123.37828 35938 ft 448 kts 309°
2026-05-03 20:24 -14.40691 123.33270 35952 ft 448 kts 309°
2026-05-03 20:24 -14.36290 123.28715 35950 ft 448 kts 309°
2026-05-03 20:25 -14.31885 123.24159 35948 ft 449 kts 309°
2026-05-03 20:25 -14.27506 123.19632 35947 ft 449 kts 309°
2026-05-03 20:26 -14.23098 123.15078 35947 ft 449 kts 309°
2026-05-03 20:26 -14.18688 123.10525 35944 ft 449 kts 309°
2026-05-03 20:27 -14.14279 123.05975 35944 ft 449 kts 309°
2026-05-03 20:27 -14.09863 123.01420 35940 ft 449 kts 309°
2026-05-03 20:28 -14.05474 122.96897 35938 ft 449 kts 309°
2026-05-03 20:28 -14.01054 122.92343 35936 ft 449 kts 309°
2026-05-03 20:29 -13.96631 122.87789 35934 ft 450 kts 309°
2026-05-03 20:29 -13.92205 122.83235 35937 ft 450 kts 309°
2026-05-03 20:30 -13.87807 122.78713 35939 ft 450 kts 309°
2026-05-03 20:30 -13.83377 122.74160 35940 ft 450 kts 309°
2026-05-03 20:31 -13.78943 122.69605 35939 ft 450 kts 309°
2026-05-03 20:31 -13.74507 122.65050 35940 ft 451 kts 309°
2026-05-03 20:32 -13.70100 122.60529 35939 ft 451 kts 309°
2026-05-03 20:32 -13.65658 122.55973 35939 ft 451 kts 309°
2026-05-03 20:33 -13.61218 122.51422 35939 ft 451 kts 309°
2026-05-03 20:33 -13.56768 122.46865 35940 ft 451 kts 309°
2026-05-03 20:34 -13.52321 122.42312 35938 ft 452 kts 309°
2026-05-03 20:34 -13.47896 122.37785 35938 ft 452 kts 309°
2026-05-03 20:35 -13.43445 122.33234 35938 ft 452 kts 309°
2026-05-03 20:35 -13.38991 122.28681 35937 ft 452 kts 309°
2026-05-03 20:36 -13.34533 122.24127 35940 ft 452 kts 309°
2026-05-03 20:36 -13.30105 122.19606 35935 ft 452 kts 309°
2026-05-03 20:37 -13.25641 122.15052 35939 ft 452 kts 309°
2026-05-03 20:37 -13.21174 122.10497 35935 ft 453 kts 309°
2026-05-03 20:38 -13.16707 122.05944 35936 ft 453 kts 310°
2026-05-03 20:38 -13.12261 122.01415 35939 ft 453 kts 310°
2026-05-03 20:39 -13.07783 121.96856 35937 ft 454 kts 310°
2026-05-03 20:39 -13.03306 121.92300 35935 ft 454 kts 310°
2026-05-03 20:40 -12.98822 121.87739 35934 ft 454 kts 310°
2026-05-03 20:40 -12.94336 121.83180 35936 ft 454 kts 310°
2026-05-03 20:41 -12.89876 121.78649 35932 ft 454 kts 310°
2026-05-03 20:41 -12.85385 121.74089 35936 ft 455 kts 310°
2026-05-03 20:42 -12.80889 121.69526 35936 ft 455 kts 310°
2026-05-03 20:42 -12.76389 121.64962 35933 ft 455 kts 310°
2026-05-03 20:43 -12.71913 121.60424 35934 ft 456 kts 310°
2026-05-03 20:43 -12.67407 121.55858 35934 ft 456 kts 310°
2026-05-03 20:44 -12.62894 121.51289 35933 ft 456 kts 310°
2026-05-03 20:44 -12.58386 121.46725 35933 ft 456 kts 310°
2026-05-03 20:45 -12.53870 121.42157 35932 ft 456 kts 310°
2026-05-03 20:45 -12.49386 121.37623 35935 ft 457 kts 310°
2026-05-03 20:46 -12.44864 121.33053 35934 ft 457 kts 310°
2026-05-03 20:46 -12.40340 121.28484 35935 ft 457 kts 310°
2026-05-03 20:47 -12.35815 121.23915 35926 ft 457 kts 310°
2026-05-03 20:47 -12.31319 121.19379 35929 ft 457 kts 310°
2026-05-03 20:48 -12.26788 121.14810 35928 ft 457 kts 310°
2026-05-03 20:48 -12.22258 121.10243 35930 ft 458 kts 310°
2026-05-03 20:49 -12.17725 121.05676 35932 ft 458 kts 310°
2026-05-03 20:49 -12.13186 121.01106 35929 ft 458 kts 310°
2026-05-03 20:50 -12.08675 120.96566 35925 ft 458 kts 310°
2026-05-03 20:50 -12.04136 120.92000 35928 ft 458 kts 310°
2026-05-03 20:51 -11.99863 120.87215 35922 ft 452 kts 300°
2026-05-03 20:51 -11.96629 120.81759 35920 ft 448 kts 295°
2026-05-03 20:52 -11.93630 120.76235 35921 ft 448 kts 294°
2026-05-03 20:52 -11.90627 120.70650 35922 ft 448 kts 295°
2026-05-03 20:53 -11.87607 120.65077 35921 ft 449 kts 295°
2026-05-03 20:53 -11.84571 120.59506 35924 ft 449 kts 295°
2026-05-03 20:54 -11.81555 120.53981 35924 ft 449 kts 295°
2026-05-03 20:54 -11.76991 120.45623 35925 ft 449 kts 295°
2026-05-03 20:55 -11.73947 120.40050 35924 ft 450 kts 295°
2026-05-03 20:55 -11.70921 120.34515 35924 ft 450 kts 295°
2026-05-03 20:56 -11.67872 120.28942 35923 ft 450 kts 295°
2026-05-03 20:56 -11.64823 120.23370 35924 ft 450 kts 295°
2026-05-03 20:57 -11.61772 120.17798 35922 ft 450 kts 295°
2026-05-03 20:57 -11.58737 120.12259 35923 ft 450 kts 295°
2026-05-03 20:58 -11.55684 120.06690 35922 ft 450 kts 295°
2026-05-03 20:58 -11.52625 120.01112 35922 ft 450 kts 295°
2026-05-03 20:59 -11.49564 119.95535 35922 ft 451 kts 295°
2026-05-03 20:59 -11.46524 119.89999 35924 ft 451 kts 295°
2026-05-03 21:00 -11.44473 119.86267 35918 ft 451 kts 295°
2026-05-03 21:00 -11.40391 119.78841 35920 ft 451 kts 295°
2026-05-03 21:01 -11.37323 119.73262 35920 ft 451 kts 295°
2026-05-03 21:01 -11.34256 119.67691 35917 ft 451 kts 295°
2026-05-03 21:02 -11.31203 119.62147 35918 ft 451 kts 296°
2026-05-03 21:02 -11.28130 119.56569 35916 ft 451 kts 296°
2026-05-03 21:03 -11.25059 119.50997 35917 ft 451 kts 296°
2026-05-03 21:03 -11.22004 119.45460 35916 ft 451 kts 296°
2026-05-03 21:04 -11.18926 119.39883 35915 ft 452 kts 296°
2026-05-03 21:04 -11.15848 119.34308 35917 ft 451 kts 296°
2026-05-03 21:05 -11.12770 119.28737 35916 ft 452 kts 296°
2026-05-03 21:05 -11.09691 119.23165 35915 ft 452 kts 296°
2026-05-03 21:06 -11.06627 119.17626 35912 ft 452 kts 296°
2026-05-03 21:06 -11.03539 119.12046 35911 ft 452 kts 296°
2026-05-03 21:07 -11.00453 119.06473 35916 ft 452 kts 296°
2026-05-03 21:07 -10.97365 119.00900 35911 ft 452 kts 296°
2026-05-03 21:08 -10.94296 118.95362 35912 ft 452 kts 296°
2026-05-03 21:08 -10.91206 118.89792 35912 ft 452 kts 296°
2026-05-03 21:09 -10.88114 118.84219 35914 ft 452 kts 296°
2026-05-03 21:09 -10.85023 118.78652 35914 ft 452 kts 296°
2026-05-03 21:10 -10.81950 118.73119 35911 ft 452 kts 296°
2026-05-03 21:10 -10.78855 118.67550 35912 ft 452 kts 296°
2026-05-03 21:11 -10.75758 118.61980 35916 ft 453 kts 296°
2026-05-03 21:11 -10.72658 118.56408 35915 ft 453 kts 296°
2026-05-03 21:12 -10.69555 118.50834 35910 ft 453 kts 296°
2026-05-03 21:12 -10.66472 118.45298 35910 ft 453 kts 296°
2026-05-03 21:13 -10.63366 118.39724 35910 ft 453 kts 296°
2026-05-03 21:13 -10.60258 118.34150 35910 ft 453 kts 296°
2026-05-03 21:14 -10.57147 118.28572 35911 ft 453 kts 297°
2026-05-03 21:14 -10.54056 118.23033 35913 ft 453 kts 297°
2026-05-03 21:15 -10.50944 118.17461 35911 ft 453 kts 297°
2026-05-03 21:15 -10.47831 118.11888 35908 ft 453 kts 297°
2026-05-03 21:16 -10.44717 118.06317 35909 ft 454 kts 297°
2026-05-03 21:16 -10.41623 118.00783 35908 ft 454 kts 297°
2026-05-03 21:17 -10.39033 117.96154 35908 ft 454 kts 297°
2026-05-03 21:17 -10.35385 117.89638 35909 ft 454 kts 297°
2026-05-03 21:18 -10.32283 117.84100 35908 ft 454 kts 297°
2026-05-03 21:18 -10.29161 117.78527 35906 ft 454 kts 297°
2026-05-03 21:19 -10.26035 117.72953 35906 ft 454 kts 297°
2026-05-03 21:19 -10.22908 117.67378 35906 ft 454 kts 297°
2026-05-03 21:20 -10.19780 117.61804 35910 ft 455 kts 297°
2026-05-03 21:20 -10.16668 117.56261 35910 ft 455 kts 297°
2026-05-03 21:21 -10.13532 117.50680 35906 ft 455 kts 297°
2026-05-03 21:21 -10.10396 117.45099 35908 ft 455 kts 297°
2026-05-03 21:22 -10.07257 117.39518 35906 ft 456 kts 297°
2026-05-03 21:22 -10.04134 117.33967 35907 ft 456 kts 297°
2026-05-03 21:23 -10.00934 117.28417 35905 ft 456 kts 298°
2026-05-03 21:23 -9.97641 117.22902 35905 ft 457 kts 299°
2026-05-03 21:24 -9.94353 117.17392 35904 ft 457 kts 299°
2026-05-03 21:24 -9.91098 117.11907 35907 ft 457 kts 299°
2026-05-03 21:25 -9.87827 117.06384 35905 ft 457 kts 299°
2026-05-03 21:25 -9.84554 117.00856 35904 ft 457 kts 299°
2026-05-03 21:26 -9.81276 116.95325 35905 ft 457 kts 299°
2026-05-03 21:26 -9.77996 116.89795 35905 ft 458 kts 299°
2026-05-03 21:27 -9.74739 116.84305 35904 ft 458 kts 299°
2026-05-03 21:27 -9.71465 116.78774 35906 ft 458 kts 299°
2026-05-03 21:28 -9.68199 116.73232 35903 ft 458 kts 298°
2026-05-03 21:28 -9.64935 116.67694 35902 ft 458 kts 299°
2026-05-03 21:29 -9.61690 116.62196 35903 ft 458 kts 299°
2026-05-03 21:29 -9.58426 116.56669 35905 ft 457 kts 299°
2026-05-03 21:30 -9.55156 116.51135 35905 ft 457 kts 299°
2026-05-03 21:30 -9.51890 116.45609 35903 ft 457 kts 299°
2026-05-03 21:31 -9.48643 116.40120 35900 ft 457 kts 299°
2026-05-03 21:31 -9.45374 116.34595 35899 ft 457 kts 299°
2026-05-03 21:32 -9.42107 116.29075 35897 ft 457 kts 299°
2026-05-03 21:32 -9.38835 116.23551 35903 ft 457 kts 299°
2026-05-03 21:33 -9.35584 116.18063 35898 ft 457 kts 299°
2026-05-03 21:33 -9.32311 116.12541 35897 ft 457 kts 299°
2026-05-03 21:34 -9.29037 116.07019 35901 ft 457 kts 299°
2026-05-03 21:34 -9.26315 116.02431 35899 ft 457 kts 299°
2026-05-03 21:35 -9.23037 115.96908 35899 ft 457 kts 299°
2026-05-03 21:35 -9.19231 115.90498 35897 ft 457 kts 299°
2026-05-03 21:36 -9.15952 115.84978 35898 ft 457 kts 299°
2026-05-03 21:36 -9.13227 115.80394 35896 ft 457 kts 299°
2026-05-03 21:37 -9.09949 115.74879 35898 ft 457 kts 299°
2026-05-03 21:37 -9.06670 115.69366 35897 ft 457 kts 299°
2026-05-03 21:38 -9.03412 115.63890 35893 ft 457 kts 299°
2026-05-03 21:38 -8.99578 115.57451 35893 ft 457 kts 299°
2026-05-03 21:39 -8.96850 115.52870 35891 ft 457 kts 299°
2026-05-03 21:39 -8.93033 115.46463 35893 ft 457 kts 299°
2026-05-03 21:40 -8.90282 115.41848 35897 ft 457 kts 299°
2026-05-03 21:40 -8.87018 115.36375 35901 ft 457 kts 299°
2026-05-03 21:41 -8.83733 115.30868 35907 ft 457 kts 299°
2026-05-03 21:41 -8.80446 115.25362 35909 ft 457 kts 300°
2026-05-03 21:42 -8.77152 115.19855 35908 ft 458 kts 300°
2026-05-03 21:42 -8.73055 115.14991 35911 ft 461 kts 319°
2026-05-03 21:43 -8.67964 115.11030 35911 ft 463 kts 322°
2026-05-03 21:43 -8.62726 115.07238 35911 ft 463 kts 323°
2026-05-03 21:44 -8.57483 115.03454 35912 ft 463 kts 323°
2026-05-03 21:44 -8.52293 114.99676 35911 ft 463 kts 322°
2026-05-03 21:45 -8.47072 114.95858 35915 ft 463 kts 322°
2026-05-03 21:45 -8.41855 114.92041 35910 ft 463 kts 322°
2026-05-03 21:46 -8.36634 114.88224 35910 ft 463 kts 322°
2026-05-03 21:46 -8.31412 114.84408 35909 ft 463 kts 322°
2026-05-03 21:47 -8.26228 114.80622 35906 ft 463 kts 323°
2026-05-03 21:47 -8.21009 114.76811 35902 ft 463 kts 323°
2026-05-03 21:48 -8.15787 114.72999 35901 ft 463 kts 323°
2026-05-03 21:48 -8.10571 114.69194 35901 ft 463 kts 323°
2026-05-03 21:49 -8.05393 114.65418 35902 ft 462 kts 323°
2026-05-03 21:49 -8.00183 114.61618 35896 ft 462 kts 323°
2026-05-03 21:50 -7.94969 114.57818 35899 ft 462 kts 323°
2026-05-03 21:50 -7.89764 114.54025 35900 ft 461 kts 323°
2026-05-03 21:51 -7.84596 114.50260 35898 ft 461 kts 323°
2026-05-03 21:51 -7.79400 114.46476 35893 ft 461 kts 323°
2026-05-03 21:52 -7.74207 114.42695 35893 ft 460 kts 323°
2026-05-03 21:52 -7.69020 114.38920 35897 ft 460 kts 323°
2026-05-03 21:53 -7.63829 114.35144 35892 ft 460 kts 323°
2026-05-03 21:53 -7.58677 114.31397 35887 ft 460 kts 323°
2026-05-03 21:54 -7.53493 114.27628 35883 ft 459 kts 323°
2026-05-03 21:54 -7.48315 114.23863 35879 ft 459 kts 323°
2026-05-03 21:55 -7.43138 114.20100 35881 ft 459 kts 323°
2026-05-03 21:55 -7.37999 114.16367 35883 ft 458 kts 323°
2026-05-03 21:56 -7.32825 114.12610 35877 ft 458 kts 323°
2026-05-03 21:56 -7.27651 114.08853 35879 ft 458 kts 323°
2026-05-03 21:57 -7.22482 114.05101 35879 ft 458 kts 323°
2026-05-03 21:57 -7.17341 114.01371 35875 ft 458 kts 324°
2026-05-03 21:58 -7.12164 113.97616 35879 ft 459 kts 324°
2026-05-03 21:58 -7.06987 113.93862 35879 ft 458 kts 324°
2026-05-03 21:59 -7.01815 113.90112 35878 ft 458 kts 324°
2026-05-03 21:59 -6.96636 113.86369 35877 ft 458 kts 324°
2026-05-03 22:00 -6.91498 113.82647 35878 ft 458 kts 324°
2026-05-03 22:00 -6.86334 113.78906 35877 ft 458 kts 324°
2026-05-03 22:01 -6.81168 113.75168 35878 ft 457 kts 324°
2026-05-03 22:01 -6.76005 113.71434 35879 ft 457 kts 324°
2026-05-03 22:02 -6.70879 113.67728 35876 ft 456 kts 324°
2026-05-03 22:02 -6.65724 113.64002 35874 ft 456 kts 324°
2026-05-03 22:03 -6.60578 113.60283 35877 ft 455 kts 324°
2026-05-03 22:03 -6.55437 113.56570 35876 ft 455 kts 324°
2026-05-03 22:04 -6.50293 113.52855 35874 ft 455 kts 324°
2026-05-03 22:04 -6.45192 113.49171 35873 ft 455 kts 324°
2026-05-03 22:05 -6.40050 113.45458 35873 ft 455 kts 325°
2026-05-03 22:05 -6.34903 113.41744 35867 ft 455 kts 325°
2026-05-03 22:06 -6.29753 113.38029 35872 ft 456 kts 325°
2026-05-03 22:06 -6.24848 113.34082 35870 ft 457 kts 314°
2026-05-03 22:07 -6.20776 113.29180 35872 ft 457 kts 309°
2026-05-03 22:07 -6.16896 113.24116 35870 ft 457 kts 308°
2026-05-03 22:08 -6.13038 113.19033 35871 ft 457 kts 308°
2026-05-03 22:08 -6.09162 113.13963 35869 ft 458 kts 308°
2026-05-03 22:09 -6.05297 113.08931 35872 ft 458 kts 308°
2026-05-03 22:10 -5.99460 113.01342 35869 ft 458 kts 308°
2026-05-03 22:10 -5.95565 112.96278 35874 ft 458 kts 308°
2026-05-03 22:11 -5.91674 112.91221 35871 ft 457 kts 308°
2026-05-03 22:11 -5.87813 112.86203 35874 ft 457 kts 308°
2026-05-03 22:12 -5.83923 112.81149 35871 ft 457 kts 308°
2026-05-03 22:12 -5.80037 112.76100 35874 ft 457 kts 308°
2026-05-03 22:13 -5.76144 112.71042 35874 ft 457 kts 308°
2026-05-03 22:13 -5.72280 112.66026 35875 ft 457 kts 308°
2026-05-03 22:14 -5.68384 112.60969 35871 ft 458 kts 308°
2026-05-03 22:14 -5.64488 112.55915 35872 ft 458 kts 308°
2026-05-03 22:15 -5.60595 112.50863 35872 ft 458 kts 308°
2026-05-03 22:15 -5.56696 112.45806 35871 ft 458 kts 309°
2026-05-03 22:16 -5.52821 112.40780 35872 ft 459 kts 309°
2026-05-03 22:16 -5.48914 112.35713 35872 ft 459 kts 309°
2026-05-03 22:17 -5.45002 112.30645 35874 ft 459 kts 309°
2026-05-03 22:17 -5.41088 112.25576 35871 ft 460 kts 309°
2026-05-03 22:18 -5.37193 112.20530 35871 ft 460 kts 309°
2026-05-03 22:18 -5.33276 112.15454 35870 ft 461 kts 309°
2026-05-03 22:19 -5.29350 112.10370 35869 ft 461 kts 309°
2026-05-03 22:19 -5.25419 112.05284 35870 ft 461 kts 309°
2026-05-03 22:20 -5.21489 112.00198 35872 ft 461 kts 309°
2026-05-03 22:20 -5.17580 111.95141 35870 ft 462 kts 309°
2026-05-03 22:21 -5.13643 111.90048 35870 ft 462 kts 309°
2026-05-03 22:21 -5.09703 111.84951 35875 ft 462 kts 309°
2026-05-03 22:22 -5.05765 111.79859 35878 ft 462 kts 309°
2026-05-03 22:22 -5.01823 111.74762 35875 ft 462 kts 309°
2026-05-03 22:23 -4.97912 111.69707 35876 ft 462 kts 309°
2026-05-03 22:23 -4.93970 111.64612 35877 ft 463 kts 309°
2026-05-03 22:24 -4.90020 111.59512 35877 ft 463 kts 309°
2026-05-03 22:24 -4.86074 111.54414 35874 ft 463 kts 309°
2026-05-03 22:25 -4.82154 111.49350 35870 ft 463 kts 309°
2026-05-03 22:25 -4.78207 111.44254 35872 ft 463 kts 309°
2026-05-03 22:26 -4.74261 111.39159 35871 ft 463 kts 309°
2026-05-03 22:26 -4.70308 111.34059 35875 ft 463 kts 309°
2026-05-03 22:27 -4.66357 111.28962 35876 ft 463 kts 309°
2026-05-03 22:27 -4.62432 111.23898 35877 ft 463 kts 309°
2026-05-03 22:28 -4.58485 111.18797 35877 ft 463 kts 308°
2026-05-03 22:28 -4.54557 111.13689 35877 ft 463 kts 308°
2026-05-03 22:29 -4.50624 111.08576 35876 ft 463 kts 308°
2026-05-03 22:29 -4.46718 111.03503 35875 ft 463 kts 308°
2026-05-03 22:30 -4.42780 110.98394 35876 ft 463 kts 308°
2026-05-03 22:30 -4.38840 110.93283 35876 ft 463 kts 308°
2026-05-03 22:31 -4.34899 110.88171 35877 ft 463 kts 308°
2026-05-03 22:31 -4.30987 110.83098 35874 ft 463 kts 308°
2026-05-03 22:32 -4.27049 110.77992 35873 ft 463 kts 308°
2026-05-03 22:32 -4.23116 110.72894 35875 ft 463 kts 308°
2026-05-03 22:33 -4.19176 110.67788 35876 ft 463 kts 308°
2026-05-03 22:33 -4.15239 110.62686 35875 ft 463 kts 308°
2026-05-03 22:34 -4.11330 110.57621 35874 ft 463 kts 308°
2026-05-03 22:34 -4.07397 110.52527 35876 ft 462 kts 308°
2026-05-03 22:35 -4.03461 110.47429 35874 ft 462 kts 308°
2026-05-03 22:35 -3.99527 110.42335 35874 ft 462 kts 308°
2026-05-03 22:36 -3.95618 110.37281 35875 ft 462 kts 309°
2026-05-03 22:36 -3.91479 110.32360 35876 ft 462 kts 312°
2026-05-03 22:37 -3.87238 110.27536 35875 ft 462 kts 312°
2026-05-03 22:37 -3.83018 110.22689 35875 ft 462 kts 311°
2026-05-03 22:38 -3.78825 110.17818 35875 ft 462 kts 311°
2026-05-03 22:38 -3.74670 110.12973 35878 ft 462 kts 311°
2026-05-03 22:39 -3.70485 110.08095 35877 ft 461 kts 311°
2026-05-03 22:39 -3.66301 110.03221 35878 ft 461 kts 311°
2026-05-03 22:40 -3.62121 109.98354 35881 ft 461 kts 311°
2026-05-03 22:40 -3.57966 109.93517 35875 ft 461 kts 311°
2026-05-03 22:41 -3.53791 109.88658 35876 ft 460 kts 311°
2026-05-03 22:41 -3.49612 109.83794 35875 ft 460 kts 311°
2026-05-03 22:42 -3.45442 109.78941 35874 ft 460 kts 311°
2026-05-03 22:42 -3.41264 109.74080 35876 ft 460 kts 311°
2026-05-03 22:43 -3.37122 109.69262 35876 ft 460 kts 311°
2026-05-03 22:43 -3.32944 109.64402 35878 ft 460 kts 311°
2026-05-03 22:44 -3.28773 109.59551 35878 ft 460 kts 311°
2026-05-03 22:44 -3.24601 109.54699 35876 ft 460 kts 311°
2026-05-03 22:45 -3.20455 109.49880 35876 ft 460 kts 311°
2026-05-03 22:45 -3.16280 109.45026 35877 ft 460 kts 311°
2026-05-03 22:46 -3.12106 109.40174 35879 ft 460 kts 311°
2026-05-03 22:46 -3.07930 109.35321 35879 ft 460 kts 311°
2026-05-03 22:47 -3.03754 109.30468 35879 ft 460 kts 311°
2026-05-03 22:47 -2.99610 109.25653 35879 ft 460 kts 311°
2026-05-03 22:48 -2.95428 109.20795 35878 ft 460 kts 311°
2026-05-03 22:48 -2.91251 109.15943 35878 ft 461 kts 311°
2026-05-03 22:49 -2.87064 109.11085 35883 ft 460 kts 311°
2026-05-03 22:49 -2.82904 109.06274 35879 ft 461 kts 312°
2026-05-03 22:50 -2.78713 109.01429 35878 ft 461 kts 311°
2026-05-03 22:50 -2.74520 108.96581 35878 ft 461 kts 311°
2026-05-03 22:51 -2.70334 108.91740 35875 ft 460 kts 312°
2026-05-03 22:51 -2.66164 108.86919 36088 ft 466 kts 312°
2026-05-03 22:51 -2.64025 108.84447 36223 ft 473 kts 312°
2026-05-03 22:52 -2.61860 108.81944 36371 ft 479 kts 312°
2026-05-03 22:52 -2.59667 108.79410 36521 ft 485 kts 312°
2026-05-03 22:52 -2.57449 108.76847 36752 ft 489 kts 312°
2026-05-03 22:52 -2.55221 108.74272 37075 ft 490 kts 312°
2026-05-03 22:53 -2.52989 108.71690 37476 ft 490 kts 312°
2026-05-03 22:53 -2.50763 108.69117 37818 ft 490 kts 312°
2026-05-03 22:53 -2.48563 108.66574 37872 ft 490 kts 312°
2026-05-03 22:54 -2.44116 108.61425 37878 ft 489 kts 312°
2026-05-03 22:54 -2.39676 108.56270 37880 ft 489 kts 312°
2026-05-03 22:55 -2.35232 108.51112 37882 ft 489 kts 312°
2026-05-03 22:55 -2.30816 108.45990 37877 ft 489 kts 312°
2026-05-03 22:56 -2.26371 108.40837 37876 ft 490 kts 312°
2026-05-03 22:56 -2.21923 108.35681 37877 ft 489 kts 312°
2026-05-03 22:57 -2.17478 108.30528 37875 ft 489 kts 312°
2026-05-03 22:57 -2.13032 108.25374 37876 ft 489 kts 312°
2026-05-03 22:58 -2.08612 108.20252 37875 ft 489 kts 312°
2026-05-03 22:58 -2.04163 108.15099 37880 ft 489 kts 312°
2026-05-03 22:59 -1.99714 108.09946 37874 ft 490 kts 312°
2026-05-03 22:59 -1.95268 108.04783 37879 ft 490 kts 312°
2026-05-03 23:00 -1.90855 107.99662 37879 ft 490 kts 312°
2026-05-03 23:00 -1.86411 107.94509 37875 ft 490 kts 312°
2026-05-03 23:01 -1.81963 107.89352 37874 ft 489 kts 312°
2026-05-03 23:01 -1.77519 107.84200 37875 ft 489 kts 312°
2026-05-03 23:02 -1.73101 107.79080 37877 ft 489 kts 312°
2026-05-03 23:02 -1.68661 107.73933 37877 ft 489 kts 312°
2026-05-03 23:03 -1.64214 107.68779 37874 ft 489 kts 312°
2026-05-03 23:03 -1.59769 107.63627 37878 ft 489 kts 312°
2026-05-03 23:04 -1.55326 107.58479 37877 ft 489 kts 312°
2026-05-03 23:04 -1.50907 107.53359 37875 ft 489 kts 312°
2026-05-03 23:05 -1.46465 107.48212 37874 ft 489 kts 312°
2026-05-03 23:05 -1.42019 107.43061 37877 ft 489 kts 312°
2026-05-03 23:06 -1.37578 107.37917 37871 ft 489 kts 312°
2026-05-03 23:06 -1.33139 107.32834 37869 ft 488 kts 313°
2026-05-03 23:07 -1.28627 107.27765 37872 ft 488 kts 313°
2026-05-03 23:07 -1.24112 107.22697 37875 ft 488 kts 313°
2026-05-03 23:08 -1.19599 107.17614 37872 ft 488 kts 313°
2026-05-03 23:08 -1.15125 107.12570 37874 ft 488 kts 313°
2026-05-03 23:09 -1.10623 107.07492 37874 ft 488 kts 313°
2026-05-03 23:09 -1.06115 107.02408 37875 ft 488 kts 313°
2026-05-03 23:10 -1.01606 106.97324 37874 ft 489 kts 313°
2026-05-03 23:10 -0.97100 106.92243 37876 ft 489 kts 313°
2026-05-03 23:11 -0.92620 106.87192 37875 ft 489 kts 313°
2026-05-03 23:11 -0.88110 106.82109 37874 ft 489 kts 313°
2026-05-03 23:12 -0.83594 106.77017 37874 ft 489 kts 313°
2026-05-03 23:12 -0.79080 106.71928 37874 ft 489 kts 313°
2026-05-03 23:13 -0.74595 106.66873 37875 ft 489 kts 313°
2026-05-03 23:13 -0.70079 106.61783 37875 ft 489 kts 313°
2026-05-03 23:14 -0.65568 106.56698 37875 ft 489 kts 313°
2026-05-03 23:14 -0.61047 106.51603 37879 ft 490 kts 313°
2026-05-03 23:15 -0.56578 106.46528 37876 ft 490 kts 312°
2026-05-03 23:15 -0.52104 106.41396 37875 ft 490 kts 312°
2026-05-03 23:16 -0.47629 106.36271 37877 ft 489 kts 312°
2026-05-03 23:16 -0.43151 106.31152 37871 ft 489 kts 312°
2026-05-03 23:17 -0.38693 106.26061 37872 ft 490 kts 312°
2026-05-03 23:17 -0.34211 106.20944 37876 ft 489 kts 312°
2026-05-03 23:18 -0.29730 106.15827 37876 ft 489 kts 312°
2026-05-03 23:18 -0.25249 106.10709 37892 ft 489 kts 312°
2026-05-03 23:19 -0.20765 106.05589 37875 ft 489 kts 312°
2026-05-03 23:19 -0.16317 106.00509 37873 ft 489 kts 312°
2026-05-03 23:20 -0.11847 105.95404 37879 ft 488 kts 312°
2026-05-03 23:20 -0.07380 105.90303 37877 ft 488 kts 312°
2026-05-03 23:21 -0.02913 105.85202 37875 ft 487 kts 312°
2026-05-03 23:21 0.01519 105.80141 37870 ft 486 kts 312°
2026-05-03 23:22 0.08142 105.72577 37889 ft 480 kts 312°
2026-05-03 23:22 0.12536 105.67558 37887 ft 480 kts 312°
2026-05-03 23:23 0.16903 105.62571 37874 ft 480 kts 312°
2026-05-03 23:23 0.21296 105.57554 37878 ft 480 kts 312°
2026-05-03 23:24 0.25689 105.52537 37869 ft 480 kts 312°
2026-05-03 23:24 0.30083 105.47520 37869 ft 480 kts 312°
2026-05-03 23:25 0.34477 105.42501 37872 ft 480 kts 312°
2026-05-03 23:25 0.38842 105.37515 37867 ft 480 kts 312°
2026-05-03 23:26 0.42680 105.32060 37883 ft 481 kts 302°
2026-05-03 23:26 0.46126 105.26333 37888 ft 481 kts 301°
2026-05-03 23:27 0.49518 105.20569 37887 ft 481 kts 301°
2026-05-03 23:27 0.52899 105.14810 37888 ft 481 kts 301°
2026-05-03 23:28 0.56275 105.09087 37886 ft 481 kts 301°
2026-05-03 23:28 0.59678 105.03334 37891 ft 481 kts 301°
2026-05-03 23:29 0.63081 104.97583 37891 ft 481 kts 301°
2026-05-03 23:29 0.66484 104.91830 37891 ft 481 kts 301°
2026-05-03 23:30 0.69864 104.86116 37894 ft 481 kts 301°
2026-05-03 23:30 0.73267 104.80365 37894 ft 481 kts 301°
2026-05-03 23:31 0.76667 104.74615 37891 ft 481 kts 301°
2026-05-03 23:31 0.80072 104.68858 37891 ft 481 kts 301°
2026-05-03 23:32 0.83453 104.63140 37894 ft 481 kts 301°
2026-05-03 23:32 0.86859 104.57382 37890 ft 481 kts 301°
2026-05-03 23:33 0.90264 104.51625 37892 ft 481 kts 301°
2026-05-03 23:33 0.93405 104.45729 37890 ft 481 kts 296°
2026-05-03 23:34 0.96200 104.39647 37889 ft 482 kts 295°
2026-05-03 23:34 0.98999 104.33617 37893 ft 482 kts 296°
2026-05-03 23:35 1.01885 104.27576 37895 ft 482 kts 296°
2026-05-03 23:35 1.04802 104.21542 37891 ft 482 kts 296°
2026-05-03 23:36 1.07728 104.15510 37885 ft 482 kts 296°
2026-05-03 23:36 1.10629 104.09509 37888 ft 483 kts 296°
2026-05-03 23:37 1.13544 104.03472 37873 ft 482 kts 296°
2026-05-03 23:37 1.16459 103.97437 37889 ft 482 kts 296°
2026-05-03 23:38 1.19375 103.91403 37913 ft 482 kts 296°
2026-05-03 23:38 1.22884 103.85725 37909 ft 481 kts 311°
2026-05-03 23:39 1.27956 103.81500 37908 ft 480 kts 331°
2026-05-03 23:39 1.34121 103.78988 37888 ft 479 kts 338°
2026-05-03 23:40 1.40177 103.76175 37886 ft 480 kts 334°
2026-05-03 23:40 1.46162 103.73198 37889 ft 480 kts 333°
2026-05-03 23:41 1.52238 103.70564 37888 ft 480 kts 341°
2026-05-03 23:41 1.58581 103.68475 37876 ft 480 kts 341°
2026-05-03 23:42 1.64485 103.65410 37882 ft 480 kts 323°
2026-05-03 23:42 1.69019 103.60551 37869 ft 480 kts 302°
2026-05-03 23:43 1.72156 103.54658 37891 ft 481 kts 296°
2026-05-03 23:43 1.75032 103.48667 37893 ft 481 kts 295°
2026-05-03 23:44 1.77928 103.42639 37900 ft 482 kts 296°
2026-05-03 23:44 1.80865 103.36614 37906 ft 482 kts 296°
2026-05-03 23:45 1.83814 103.30603 37902 ft 482 kts 296°
2026-05-03 23:45 1.86750 103.24636 37902 ft 481 kts 296°
2026-05-03 23:46 1.89697 103.18626 37903 ft 481 kts 296°
2026-05-03 23:46 1.91159 103.15641 37607 ft 476 kts 296°
2026-05-03 23:46 1.92618 103.12661 36731 ft 481 kts 296°
2026-05-03 23:47 1.94102 103.09632 35732 ft 489 kts 296°
2026-05-03 23:47 1.95608 103.06558 34756 ft 496 kts 296°
2026-05-03 23:47 1.97137 103.03438 33771 ft 503 kts 297°
2026-05-03 23:47 1.98666 103.00322 32725 ft 509 kts 297°
2026-05-03 23:48 2.00229 102.97138 31793 ft 511 kts 296°
2026-05-03 23:48 2.01793 102.93950 30989 ft 510 kts 296°
2026-05-03 23:48 2.03354 102.90766 30262 ft 508 kts 296°
2026-05-03 23:48 2.04904 102.87606 29511 ft 504 kts 296°
2026-05-03 23:49 2.06410 102.84526 28468 ft 484 kts 296°
2026-05-03 23:49 2.07839 102.81590 27879 ft 457 kts 296°
2026-05-03 23:49 2.09196 102.78806 27348 ft 435 kts 296°
2026-05-03 23:49 2.10518 102.76094 26796 ft 433 kts 296°
2026-05-03 23:50 2.11820 102.73426 26262 ft 433 kts 296°
2026-05-03 23:50 2.12711 102.71600 25895 ft 432 kts 296°
2026-05-03 23:50 2.14452 102.68032 25168 ft 431 kts 296°
2026-05-03 23:50 2.15945 102.65444 24618 ft 429 kts 307°
2026-05-03 23:51 2.18053 102.63366 24070 ft 426 kts 326°
2026-05-03 23:51 2.20607 102.61890 23526 ft 425 kts 334°
2026-05-03 23:51 2.23253 102.60573 22882 ft 424 kts 335°
2026-05-03 23:51 2.25891 102.59261 22586 ft 425 kts 334°
2026-05-03 23:52 2.28549 102.57927 22352 ft 430 kts 334°
2026-05-03 23:52 2.31218 102.56578 22092 ft 430 kts 334°
2026-05-03 23:52 2.33842 102.55246 21830 ft 428 kts 334°
2026-05-03 23:52 2.36487 102.53902 21565 ft 426 kts 334°
2026-05-03 23:53 2.39126 102.52559 21305 ft 425 kts 334°
2026-05-03 23:53 2.41754 102.51220 21038 ft 423 kts 334°
2026-05-03 23:53 2.44374 102.49885 20780 ft 421 kts 334°
2026-05-03 23:53 2.46980 102.48558 20515 ft 420 kts 334°
2026-05-03 23:54 2.49571 102.47224 20259 ft 419 kts 333°
2026-05-03 23:54 2.51942 102.45548 19995 ft 419 kts 317°
2026-05-03 23:54 2.53942 102.43490 19735 ft 417 kts 313°
2026-05-03 23:54 2.55893 102.41347 19297 ft 416 kts 313°
2026-05-03 23:55 2.57837 102.39217 18691 ft 415 kts 313°
2026-05-03 23:55 2.59790 102.37087 18073 ft 414 kts 313°
2026-05-03 23:55 2.61710 102.34993 17806 ft 404 kts 313°
2026-05-03 23:55 2.63608 102.32927 17543 ft 403 kts 313°
2026-05-03 23:56 2.65504 102.30866 17285 ft 402 kts 313°
2026-05-03 23:56 2.67395 102.28813 17061 ft 400 kts 313°
2026-05-03 23:56 2.69277 102.26772 16808 ft 399 kts 313°
2026-05-03 23:56 2.71169 102.24752 16550 ft 397 kts 315°
2026-05-03 23:57 2.73128 102.22871 16319 ft 395 kts 317°
2026-05-03 23:57 2.74481 102.21606 16149 ft 393 kts 317°
2026-05-03 23:57 2.74712 102.21390 16128 ft 393 kts 317°
2026-05-03 23:57 2.76227 102.19966 15947 ft 392 kts 317°
2026-05-03 23:58 2.78212 102.18106 15705 ft 390 kts 319°
2026-05-03 23:58 2.80476 102.16650 15466 ft 386 kts 339°
2026-05-03 23:58 2.83057 102.16102 15286 ft 375 kts
2026-05-03 23:58 2.85598 102.16282 15187 ft 357 kts
2026-05-03 23:59 2.87994 102.16473 15076 ft 344 kts
2026-05-03 23:59 2.90336 102.16212 14902 ft 334 kts 352°
2026-05-03 23:59 2.92586 102.15797 14688 ft 325 kts 351°
2026-05-03 23:59 2.94795 102.15351 14464 ft 322 kts 349°
2026-05-04 00:00 2.96908 102.14609 14238 ft 323 kts 336°
2026-05-04 00:00 2.98928 102.13631 14015 ft 322 kts 335°
2026-05-04 00:00 3.00933 102.12625 13788 ft 321 kts 335°
2026-05-04 00:00 3.02874 102.11527 13548 ft 322 kts 326°
2026-05-04 00:01 3.04607 102.10121 13289 ft 320 kts 320°
2026-05-04 00:01 3.06251 102.08663 13053 ft 319 kts 319°
2026-05-04 00:01 3.07896 102.07184 12918 ft 318 kts 317°
2026-05-04 00:01 3.09378 102.05422 12902 ft 350 kts 303°
2026-05-04 00:02 3.10314 102.03102 12873 ft 370 kts 281°
2026-05-04 00:02 3.10297 102.00526 12858 ft 373 kts 258°
2026-05-04 00:02 3.09333 101.98141 12690 ft 371 kts 236°
2026-05-04 00:02 3.07582 101.96279 12467 ft 367 kts 218°
2026-05-04 00:03 3.06335 101.95141 12267 ft 368 kts 227°
2026-05-04 00:03 3.04145 101.92562 11964 ft 366 kts 228°
2026-05-04 00:03 3.02422 101.90699 11728 ft 364 kts 225°
2026-05-04 00:03 3.00610 101.88932 11479 ft 362 kts 222°
2026-05-04 00:04 2.98721 101.87287 11230 ft 360 kts 218°
2026-05-04 00:04 2.96731 101.85763 10994 ft 358 kts 214°
2026-05-04 00:04 2.95368 101.84841 10841 ft 357 kts 212°
2026-05-04 00:04 2.92500 101.83218 10602 ft 346 kts 205°
2026-05-04 00:05 2.91070 101.82569 10532 ft 334 kts 201°
2026-05-04 00:05 2.88941 101.81804 10435 ft 317 kts 196°
2026-05-04 00:05 2.86220 101.81016 10303 ft 299 kts 198°
2026-05-04 00:05 2.84286 101.80268 10196 ft 299 kts 201°
2026-05-04 00:06 2.82325 101.79573 10080 ft 299 kts 194°
2026-05-04 00:06 2.80968 101.79345 10001 ft 298 kts 183°
2026-05-04 00:06 2.78929 101.79587 9860 ft 295 kts 161°
2026-05-04 00:06 2.77121 101.80529 9623 ft 293 kts 145°
2026-05-04 00:07 2.75452 101.81698 9370 ft 293 kts 144°
2026-05-04 00:07 2.73784 101.82871 9119 ft 293 kts 144°
2026-05-04 00:07 2.72109 101.84026 8868 ft 292 kts 145°
2026-05-04 00:07 2.69895 101.85532 8550 ft 290 kts 145°
2026-05-04 00:08 2.68772 101.86290 8441 ft 284 kts 145°
2026-05-04 00:08 2.67169 101.87370 8332 ft 272 kts 146°
2026-05-04 00:08 2.65633 101.88403 8210 ft 260 kts 146°
2026-05-04 00:08 2.64182 101.89378 8109 ft 250 kts 146°
2026-05-04 00:09 2.62755 101.90335 7891 ft 245 kts 146°
2026-05-04 00:09 2.61355 101.91281 7693 ft 239 kts 146°
2026-05-04 00:09 2.59983 101.92201 7570 ft 239 kts 146°
2026-05-04 00:09 2.58594 101.93129 7380 ft 241 kts 146°
2026-05-04 00:10 2.57202 101.94061 7147 ft 241 kts 146°
2026-05-04 00:10 2.55356 101.95279 6806 ft 239 kts 149°
2026-05-04 00:10 2.54329 101.95725 6626 ft 239 kts 166°
2026-05-04 00:10 2.52705 101.95668 6408 ft 234 kts 201°
2026-05-04 00:11 2.51419 101.94772 6295 ft 222 kts 231°
2026-05-04 00:11 2.50539 101.93568 6185 ft 213 kts 237°
2026-05-04 00:11 2.49742 101.92351 6043 ft 207 kts 237°
2026-05-04 00:11 2.49179 101.91053 5838 ft 205 kts 266°
2026-05-04 00:12 2.49541 101.89714 5667 ft 202 kts 306°
2026-05-04 00:12 2.50502 101.88699 5440 ft 202 kts 320°
2026-05-04 00:12 2.51610 101.87863 5290 ft 196 kts 324°
2026-05-04 00:12 2.52713 101.87106 5097 ft 190 kts 325°
2026-05-04 00:13 2.53794 101.86379 4868 ft 185 kts 326°
2026-05-04 00:13 2.54844 101.85671 4624 ft 184 kts 326°
2026-05-04 00:13 2.55899 101.84959 4359 ft 182 kts 326°
2026-05-04 00:13 2.56946 101.84254 4100 ft 180 kts 326°
2026-05-04 00:14 2.57980 101.83557 3853 ft 178 kts 325°
2026-05-04 00:14 2.58997 101.82871 3647 ft 175 kts 326°
2026-05-04 00:14 2.59999 101.82197 3413 ft 172 kts 325°
2026-05-04 00:14 2.60981 101.81535 3198 ft 168 kts 325°
2026-05-04 00:15 2.61927 101.80898 2991 ft 159 kts 325°
2026-05-04 00:15 2.62820 101.80297 2795 ft 150 kts 325°
2026-05-04 00:15 2.63666 101.79727 2600 ft 143 kts 325°
2026-05-04 00:15 2.64462 101.79190 2416 ft 139 kts 325°
2026-05-04 00:16 2.65262 101.78651 2247 ft 139 kts 325°
2026-05-04 00:16 2.66063 101.78111 2064 ft 139 kts 325°
2026-05-04 00:16 2.66869 101.77568 1885 ft 140 kts 325°
2026-05-04 00:16 2.67674 101.77026 1706 ft 140 kts 326°
2026-05-04 00:17 2.68481 101.76483 1523 ft 140 kts 326°
2026-05-04 00:17 2.69285 101.75941 1350 ft 139 kts 326°
2026-05-04 00:17 2.70087 101.75400 1158 ft 139 kts 326°
2026-05-04 00:17 2.70878 101.74867 988 ft 139 kts 326°
2026-05-04 00:18 2.71680 101.74327 815 ft 139 kts 326°
2026-05-04 00:18 2.72480 101.73790 646 ft 138 kts 326°
2026-05-04 00:18 2.73274 101.73253 462 ft 138 kts 325°
2026-05-04 00:18 2.74068 101.72723 314 ft 138 kts 327°
2026-05-04 00:19 2.74863 101.72188 144 ft 137 kts 326°
2026-05-04 00:19 2.75640 101.71668 86 ft 129 kts 326°
2026-05-04 00:19 2.76310 101.71218 67 ft 100 kts 326°
2026-05-04 00:19 2.76708 101.70952 66 ft 30 kts 326°
2026-05-04 00:20 2.76837 101.70848 65 ft 21 kts 303°
2026-05-04 00:20 2.76897 101.70741 65 ft 13 kts 297°
2026-05-04 00:20 2.76920 101.70664 69 ft 13 kts 267°
2026-05-04 00:20 2.76887 101.70620 62 ft 8 kts 194°
2026-05-04 00:21 2.76828 101.70643 65 ft 11 kts 148°
2026-05-04 00:21 2.76754 101.70691 64 ft 14 kts 145°
2026-05-04 00:21 2.76661 101.70755 67 ft 18 kts 145°
2026-05-04 00:21 2.76542 101.70835 63 ft 22 kts 146°
2026-05-04 00:22 2.76416 101.70918 66 ft 19 kts 146°
2026-05-04 00:22 2.76330 101.70975 72 ft 13 kts 146°
2026-05-04 00:22 2.76253 101.71027 65 ft 14 kts 146°
2026-05-04 00:22 2.76183 101.71074 66 ft 11 kts 146°
2026-05-04 00:23 2.76125 101.71113 71 ft 11 kts 146°
2026-05-04 00:23 2.76053 101.71160 68 ft 14 kts 146°
2026-05-04 00:23 2.75966 101.71219 69 ft 16 kts 146°
2026-05-04 00:23 2.75872 101.71283 84 ft 15 kts 146°
2026-05-04 00:24 2.75784 101.71341 84 ft 14 kts 146°
2026-05-04 00:24 2.75706 101.71394 83 ft 14 kts 146°
2026-05-04 00:24 2.75612 101.71457 81 ft 17 kts 146°
2026-05-04 00:24 2.75548 101.71499 85 ft 7 kts 146°
2026-05-04 00:25 2.75493 101.71537 83 ft 13 kts 146°
2026-05-04 00:25 2.75405 101.71596 66 ft 18 kts 146°
2026-05-04 00:25 2.75307 101.71662 70 ft 16 kts 146°
2026-05-04 00:25 2.75213 101.71725 84 ft 17 kts 146°
2026-05-04 00:26 2.75104 101.71798 85 ft 20 kts 146°
2026-05-04 00:26 2.74997 101.71868 87 ft 15 kts 146°
2026-05-04 00:26 2.74906 101.71930 88 ft 17 kts 146°
2026-05-04 00:26 2.74815 101.71992 87 ft 13 kts 146°
2026-05-04 00:27 2.74754 101.72027 89 ft 8 kts 169°
2026-05-04 00:27 2.74703 101.71993 87 ft 11 kts 232°
2026-05-04 00:27 2.74643 101.71905 84 ft 19 kts 236°
2026-05-04 00:27 2.74568 101.71792 81 ft 19 kts 237°
2026-05-04 00:28 2.74496 101.71685 84 ft 18 kts 236°
2026-05-04 00:28 2.74437 101.71596 82 ft 16 kts 236°
2026-05-04 00:28 2.74381 101.71513 82 ft 10 kts 236°
2026-05-04 00:28 2.74379 101.71472 81 ft 6 kts 298°
2026-05-04 00:29 2.74421 101.71437 83 ft 10 kts 326°
2026-05-04 00:29 2.74480 101.71397 84 ft 7 kts 327°
2026-05-04 00:29 2.74520 101.71374 83 ft 4 kts 345°
2026-05-04 00:29 2.74551 101.71386 83 ft 6 kts 37°
2026-05-04 00:30 2.74565 101.71406 83 ft 1 kts 54°
2026-05-04 00:30 2.74570 101.71414 83 ft 2 kts 55°